User: anonymous   Login
Location: Unspecified
(0.0000°N, 0.0000°E)
Time: 01:36:33
(UTC+00:00)
Language:

SBSS (USA 216) - Orbit

View from above orbital plane
View from above orbital plane
View from above satellite
View from above satellite

Ground track
Ground track

The orbit data is extracted from the following two-line orbital elements,

1 37168U 10048A   17116.81757787 0.00000160  00000-0  20492-4 0    05
2 37168  97.9026 342.4228 0001000  86.9530 273.0468 14.81391879    08
Epoch (UTC): 26 April 2017 19:37:18
Eccentricity: 0.0001000
inclination: 97.9026°
perigee height: 624 km
apogee height: 625 km
right ascension of ascending node: 342.4228°
argument of perigee: 86.9530°
revolutions per day: 14.81391879
mean anomaly at epoch: 273.0468°
orbit number at epoch: 0

The dashed part of the orbit path shows where the satellite is in the earth's shadow,  

DLR